This demonstration page uses our WeatherBlox Daily Observations layout. Learn more.

Left ArrowRight Arrow

36.17497, -115.13722

Hourly Observations for September 25, 2021

Temp ( °F °C ) Dew Point ( °F °C ) Humidity (%) Winds ( mph kmh ) Pressure ( in mb ) Visibility ( mi km ) Precip ( " mm )
12:53 am 00:53 Clear 75 23.9 38 3.3 26 26 NW 3 6 29.92 1013 10 16 N/A
1:53 am 01:53 Clear 75 23.9 38 3.3 26 26 N 5 7 29.91 1013 10 16 N/A
2:53 am 02:53 Clear 74 23.3 39 3.9 28 28 NNE 3 6 29.91 1013 10 16 N/A
3:53 am 03:53 Clear 76 24.4 37 2.8 24 24 W 3 6 29.92 1013 10 16 N/A
4:53 am 04:53 Clear 73 22.8 38 3.3 28 28 WNW 5 7 29.94 1014 10 16 N/A
5:53 am 05:53 Clear 72 22.2 36 2.2 27 27 NNW 8 13 29.96 1014 10 16 N/A
6:53 am 06:53 Sunny 71 21.7 36 2.2 28 28 NNW 7 11 29.98 1015 10 16 N/A
7:53 am 07:53 Sunny 75 23.9 43 6.1 32 32 NW 3 6 29.99 1016 10 16 N/A
8:53 am 08:53 Sunny 79 26.1 52 11.1 39 39 N 3 6 30.00 1016 10 16 N/A
9:53 am 09:53 Sunny 82 27.8 51 10.6 34 34 VRB 3 6 30.01 1016 10 16 N/A
10:53 am 10:53 Sunny 83 28.3 46 7.8 27 27 ESE 5 7 30.01 1016 10 16 N/A
11:53 am 11:53 Sunny 84 28.9 48 8.9 29 29 E 7 11 29.99 1016 10 16 N/A
12:53 pm 12:53 Sunny 89 31.7 48 8.9 24 24 ESE 8 13 29.96 1015 10 16 N/A
1:53 pm 13:53 Sunny 91 32.8 46 7.8 21 21 N N/A 29.93 1013 10 16 N/A
2:53 pm 14:53 Sunny 94 34.4 45 7.2 18 18 N 5 7 29.89 1012 10 16 N/A
3:53 pm 15:53 Sunny 93 33.9 48 8.9 21 21 ESE 9 15 29.86 1011 10 16 N/A
4:53 pm 16:53 Sunny 93 33.9 51 10.6 24 24 ESE 8 13 29.85 1011 10 16 N/A
5:53 pm 17:53 Sunny 92 33.3 49 9.4 23 23 ESE 9 15 29.85 1011 10 16 N/A
6:53 pm 18:53 Clear 90 32.2 48 8.9 24 24 E 9 15 29.85 1011 10 16 N/A
7:53 pm 19:53 Clear 87 30.6 49 9.4 27 27 SE 10 17 29.87 1012 10 16 N/A
8:53 pm 20:53 Clear 85 29.4 48 8.9 28 28 SE 9 15 29.88 1012 10 16 N/A
9:53 pm 21:53 Clear 85 29.4 48 8.9 28 28 N 3 6 29.87 1012 10 16 N/A
10:53 pm 22:53 Clear 83 28.3 49 9.4 31 31 ESE 8 13 29.88 1012 10 16 N/A
11:53 pm 23:53 Clear 80 26.7 50 10 35 35 WSW 3 6 29.89 1012 10 16 N/A

Powered by AerisWeather